Regional Weather Roundup
Issued by NWS

Home | Current Version | Previous Version | Text Only | Print | Product List | Glossary On
Versions: 1 2 3 4 5 6 7 8 9 10 11 12 13 14 15 16 17 18 19 20 21 22 23 24 25 26 27 28 29 30 31 32 33 34 35 36 37 38 39 40 41 42 43 44 45 46 47 48 49 50
000
ASUS43 KTOP 271259
RWRKS

WEATHER ROUNDUP FOR KANSAS
NATIONAL WEATHER SERVICE GOODLAND KS
700 AM CST FRI FEB 27 2015

NOTE:  "FAIR" INDICATES FEW OR NO CLOUDS BELOW 12,000 FEET WITH NO
SIGNIFICANT WEATHER AND/OR OBSTRUCTIONS TO VISIBILITY.

KSZ001>006-013>018-027>032-041>047-271400-
NORTHWEST KANSAS

CITY           SKY/WX    TMP DP  RH WIND       PRES   REMARKS
GOODLAND       LGT SNOW  10   7  87 SE13      30.27F FOG     WCI  -5
HAYS           MOCLDY     9  -8  47 E8        30.48S
HILL CITY      CLOUDY     8   0  69 E6        30.47S
RUSSELL        CLOUDY     8   1  73 SE7       30.50S
$$

KSZ061>065-074>080-084>089-271400-
SOUTHWEST KANSAS

CITY           SKY/WX    TMP DP  RH WIND       PRES   REMARKS
DODGE CITY     LGT SNOW  11   6  81 SE10      30.41S WCI  -3
ELKHART          N/A     11   2  67 SE13        N/A  WCI  -4
GARDEN CITY    LGT SNOW  11   8  88 SE10      30.36S FOG     WCI  -3
GREAT BEND     CLOUDY    10  -2  56 E8        30.51R
LIBERAL        CLOUDY    12   5  73 SE13      30.36F WCI  -3
$$

KSZ066>073-081>083-090>101-271400-
SOUTHEAST KANSAS

CITY           SKY/WX    TMP DP  RH WIND       PRES   REMARKS
CHANUTE        CLOUDY     8  -1  66 NE5       30.60R
COFFEYVILLE    CLOUDY    10   0  63 NE9       30.62R
HUTCHINSON     CLOUDY    10   0  63 E7        30.54F
MEDICINE LODGE   N/A     13   2  61 NE8       30.52R
NEWTON         MOCLDY     9  -4  56 E6        30.56R
PARSONS        MOCLDY     9   0  67 VRB3      30.62R
WICHITA INTL   CLOUDY    11  -2  56 E12       30.55F WCI  -3
WICHITA JABRA  CLOUDY     9   0  67 E8        30.56R
WINFIELD       CLOUDY    10   2  69 NE9       30.55F
$$

KSZ007>012-019>026-033>040-048>060-102>105-271400-
NORTHEAST KANSAS

CITY           SKY/WX    TMP DP  RH WIND       PRES   REMARKS
CONCORDIA      PTCLDY     3   0  87 CALM      30.56S
EMPORIA        CLOUDY     6   1  80 NE6       30.58R
LAWRENCE       PTCLDY     2  -3  80 NW3       30.64R
MANHATTAN      PTCLDY     7   1  76 CALM      30.61R
OLATHE IND     CLEAR      3  -2  79 N6        30.61S
OLATHE EXE     CLEAR      5  -3  69 NE5       30.59R
SALINA         MOCLDY    10   0  63 CALM      30.58S
TOPEKA BILLARD PTCLDY     6  -2  69 CALM      30.64R
TOPEKA FORBES  MOCLDY     6  -1  73 NE3       30.60R
$$


USA.gov is the U.S. government's official web portal to all federal, state and local government web resources and services.